Flag for US Virgin Islands Weather past 2 weeks in Christiansted, US Virgin Islands

Now
90 °F

Scattered clouds.


Feels Like: 102 °F
Forecast: 79 / 85 °F
Wind: 15 mph from East

Location: Christiansted / Henry E. Rohlsen Airport - Saint Croix

Current Time: Sep 19, 2014 at 12:48:08 PM

Latest Report: Sep 19, 2014 at 11:53 AM


Visibility: 10 mi

Pressure: 29.97 "Hg

Humidity: 63%

Dew point: 76 °F

Location of ChristianstedLocation

Historic Weather in Christiansted — Graph

°F

Christiansted temperature yesterday

Maximum temperature yesterday: 89 °F (at 2:53 PM)
Minimum temperature yesterday: 77 °F (at 3:53 AM)
Average temperature yesterday: 82 °F

Past Weeks' High & Low Weather Summary

 TemperatureHumidityPressure
High90 °F (Sep 19, 11:53 AM)94% (Sep 7, 5:07 AM)30.08 "Hg (Sep 7, 5:07 AM)
Low75 °F (Sep 16, 4:53 AM)59% (Sep 6, 2:53 PM)29.90 "Hg (Sep 18, 2:53 PM)
Average82 °F78%29.98 "Hg
* Reported Sep 4 11:53 AM — Sep 19 11:53 AM, Christiansted, Weather by CustomWeather, © 2014

Note: Actual official high and low records may vary slightly from our data, if they occured in-between our weather recording intervals... More about our weather records

Advertising

Christiansted weather history for previous 24 hours

 ConditionsComfort  
Time TempWeatherWind HumidityBarometerVisibility
11:53 AM
Sep 19
90 °FScattered clouds.15 mph63%29.97 "Hg10 mi
10:53 AM89 °FScattered clouds.18 mph65%29.98 "Hg10 mi
9:53 AM88 °FScattered clouds.17 mph65%29.98 "Hg10 mi
8:53 AM88 °FPassing clouds.16 mph65%29.98 "Hg10 mi
6:53 AM80 °FSunny.5 mph90%29.97 "Hg10 mi
5:53 AM79 °FClear.3 mph90%29.97 "Hg10 mi
3:53 AM80 °FClear.5 mph85%29.93 "Hg10 mi
2:53 AM79 °FClear.5 mph90%29.93 "Hg10 mi
1:53 AM81 °FPassing clouds.7 mph85%29.94 "Hg10 mi
12:53 AM81 °FPassing clouds.14 mph85%29.95 "Hg10 mi
11:53 PM
Sep 18
80 °FClear.6 mph85%29.96 "Hg10 mi
10:53 PM80 °FPassing clouds.7 mph87%29.97 "Hg10 mi
9:53 PM79 °FPassing clouds.3 mph90%29.98 "Hg10 mi
8:53 PM82 °FPassing clouds.9 mph79%29.97 "Hg10 mi
6:53 PM83 °FPassing clouds.6 mph82%29.92 "Hg10 mi
4:53 PM86 °FPassing clouds.10 mph75%29.90 "Hg10 mi
2:53 PM89 °FScattered clouds.10 mph68%29.90 "Hg10 mi
1:53 PM87 °FLight rain. Scattered clouds.12 mph72%29.92 "Hg9 mi
Weather by CustomWeather, © 2014

See weather overviewHow to use our weather pages